Overview Statistics Trail Chart Weather Telemetry Raw packets
 

This is the latest recevied weather packets stored in our database for station/object ED1ZAI-13. If no packets are shown the sender has not sent any weather packets the latest 10 day(s).

<< 24 25 26 27 28 29 30 >>
Time Temp. Humidity Pressure Rain* Wind** Luminosity Snow
1788241027 13.89° C 70% 1002.9 hPa - - - -
1788240427 14.44° C 70% 1002.9 hPa - - - -
1788239826 14.44° C 69% 1003.1 hPa - - - -
1788239226 14.44° C 69% 1002.9 hPa - - - -
1788238626 14.44° C 70% 1002.6 hPa - - - -
1788238026 14.44° C 69% 1002.6 hPa - - - -
1788237425 14.44° C 70% 1002.7 hPa - - - -
1788236825 15° C 69% 1002.6 hPa - - - -
1788236225 15° C 69% 1002.6 hPa - - - -
1788235624 15° C 70% 1002.2 hPa - - - -
1788235026 14.44° C 70% 1002.5 hPa - - - -
1788234426 15° C 67% 1003.2 hPa - - - -
1788233825 15.56° C 67% 1003.3 hPa - - - -
1788233549 15.56° C 67% 1003.3 hPa - - - -
1788232949 16.11° C 65% 1004.4 hPa - - - -
1788232348 16.11° C 64% 1004.9 hPa - - - -
1788231748 16.11° C 65% 1004.7 hPa - - - -
1788231148 16.11° C 66% 1004.4 hPa - - - -
1788230547 15.56° C 66% 1004.1 hPa - - - -
1788229949 15.56° C 65% 1004.4 hPa - - - -
1788229349 15.56° C 65% 1004.8 hPa - - - -
1788228748 16.11° C 64% 1005.7 hPa - - - -
1788228148 16.67° C 63% 1006 hPa - - - -
1788227548 16.67° C 63% 1006.1 hPa - - - -
1788226947 16.67° C 63% 1005.9 hPa - - - -

* Rain since midnight (hover to see other rain measurements)
** Current wind speed in m/s (hover to see current wind gust speed)